Powrót do katalogu

OFEQ 16

AktywnyMilitariaVLEO
NORAD 45860·PAYLOAD·🇮🇱 Israel

Wystrzelony Jul 6, 2020 z Palmachim Airbase

Loading…

Następne Przeloty (najbliższe 24 godziny)

TLE

NieaktualneSource: Mike McCants

Epoka: Jul 11, 2026, 01:34 UTC

1 45860U 20044A   26192.06578033 0.00002200  00000-0  18339-3 0    09
2 45860 141.0845 341.1901 0010440 109.2332 250.7661 14.97770392    02

Śledź OFEQ 16 w czasie rzeczywistym z AllMySat

Download on the App Store